Location: Vale
(35.4830°N, 81.3830°W)
Time: 13:15:53
(UTC-04:00)

Cosmos 2237 Rocket - Visible Passes

Search period start: 29 May 2016 00:00
Search period end: 08 June 2016 00:00
Orbit: 835 x 850 km, 71.0° (Epoch: 28 May)

Date Brightness Start Highest point End Pass type
(mag) Time Alt. Az. Time Alt. Az. Time Alt. Az.
29 May 5.4 04:29:39 10° NNE 04:32:40 14° NE 04:35:39 10° E visible
29 May 5.1 21:01:19 10° WSW 21:05:41 23° WNW 21:10:06 10° N visible
30 May 5.3 04:15:01 10° NNE 04:17:47 14° NE 04:20:34 10° E visible
31 May 5.3 04:00:22 10° NNE 04:02:56 13° NE 04:05:28 10° E visible
31 May 2.3 05:41:59 10° NNW 05:47:42 86° WSW 05:53:24 10° SSE visible
01 Jun 5.3 03:45:47 10° NNE 03:48:04 12° NE 03:50:20 10° ENE visible
01 Jun 2.3 05:27:10 10° NNW 05:32:53 90° WSW 05:38:35 10° SSE visible
02 Jun 5.3 03:31:14 10° NNE 03:33:11 12° NE 03:35:09 10° ENE visible
02 Jun 2.3 05:12:21 10° NNW 05:18:04 86° ENE 05:23:46 10° SSE visible
03 Jun 5.3 03:16:45 10° NE 03:18:19 11° NE 03:19:53 10° ENE visible
03 Jun 2.3 04:57:32 10° NNW 05:03:15 82° ENE 05:08:56 10° SSE visible
04 Jun 5.3 03:02:24 10° NE 03:03:27 10° NE 03:04:29 10° ENE visible
04 Jun 2.4 04:42:43 10° NNW 04:48:25 78° ENE 04:54:07 10° SSE visible
05 Jun 2.4 04:27:53 10° NNW 04:33:36 74° ENE 04:39:17 10° SSE visible
06 Jun 2.5 04:13:04 10° NNW 04:18:47 70° ENE 04:24:26 10° SSE visible
07 Jun 2.5 03:58:17 10° NNW 04:03:57 67° ENE 04:09:36 10° SSE visible
